Find Starlink 32261

NORAD ID: 61530 Int'l Des: 2024-183 Owner: SPXS Country: US Constellation: starlink operational
LEOCIRCULAR

Current View

Loading 3D Globe...

About Starlink 32261

Description loading...

Upcoming Passes

Passes for default location (London). Set your location on the main map for personalized predictions.

Altitude History

Loading altitude history...

Two-Line Element Set

1 61530U 24183X 26149.22463910 .00000577 00000-0 30358-4 0 9994
2 61530 53.1598 128.3105 0001076 75.4704 284.6417 15.31700913 91988
Epoch: May 29, 2026 • Age: 25 hours

Current Status

Altitude 484.4 km
Velocity 7.62 km/s
Sub-Earth Point -40.13°S, 103.59°E
Launch Date Oct 15, 2024
Age 1.6 years
Type internet

Technical Details

Classification Payload
Mass 730.00 kg
Dry Mass 700.00 kg
Total Mass 730.00 kg
Length 0.30 m
Diameter 4.10 m
Span 29.00 m
Shape Box + pan
Manufacturer SPXS
Bus Type Starlink V2M
Phase Status In Orbit
Owner/State SPXS/US

Most Searched